Home > Weather > Sarpsborg > Past weeks

Flag for Norway Past Weather in Sarpsborg, Norway — Yesterday and Last 2 Weeks

Now
55 °F

Light rain. Partly cloudy.


Feels Like: 53 °F
Forecast: 53 / 69 °F
Wind: 10 mph from Northeast

Location: Rygge

Current Time: May 29, 2016 at 4:03:37 AM

Latest Report: May 29, 2016 at 3:20 AM


Visibility: N/A

Pressure: 30.12 "Hg

Humidity: 77%

Dew Point: 48 °F

Location of SarpsborgLocation

Past Weather in Sarpsborg — Graph

°F

Sarpsborg Temperature Yesterday

Maximum temperature yesterday: 64 °F (at 5:20 PM)
Minimum temperature yesterday: 48 °F (at 4:20 AM)
Average temperature yesterday: 56 °F

High & Low Weather Summary for the Past Weeks

 TemperatureHumidityPressure
High68 °F (May 26, 5:50 PM)100% (May 17, 3:20 AM)30.18 "Hg (May 17, 3:20 AM)
Low39 °F (May 17, 2:50 AM)27% (May 15, 5:20 PM)29.65 "Hg (May 14, 2:20 AM)
Average53 °F72%29.88 "Hg
* Reported May 14 2:20 AM — May 29 2:50 AM, Sarpsborg, Weather by CustomWeather, © 2016

Note: Actual official high and low records may vary slightly from our data, if they occured in-between our weather recording intervals... More about our weather records

Advertising

Sarpsborg Weather History for the Previous 24 Hours

Scroll right to see more
 ConditionsComfort  
Time TempWeatherWind HumidityBarometerVisibility
2:50 AM
Sun, May 29
55 °FOvercast.7 mph77%30.15 "HgN/A
2:20 AM55 °FOvercast.6 mph77%30.15 "HgN/A
1:50 AM55 °FOvercast.6 mph77%30.15 "HgN/A
1:20 AM55 °FOvercast.6 mph72%30.15 "HgN/A
12:50 AM55 °FPassing clouds.5 mph72%30.15 "HgN/A
12:20 AM57 °FPassing clouds.6 mph67%30.15 "HgN/A
11:50 PM
Sat, May 28
57 °FOvercast.7 mph67%30.15 "HgN/A
11:20 PM59 °FPartly cloudy.6 mph63%30.18 "HgN/A
10:50 PM59 °FPartly sunny.5 mph63%30.18 "HgN/A
10:20 PM59 °FSunny.5 mph63%30.15 "Hg10 mi
9:50 PM59 °FSunny.5 mph63%30.15 "Hg10 mi
9:20 PM61 °FSunny.6 mph59%30.15 "Hg10 mi
8:50 PM61 °FSunny.5 mph59%30.15 "Hg10 mi
8:20 PM61 °FSunny.8 mph55%30.15 "Hg10 mi
7:50 PM63 °FPassing clouds.5 mph52%30.15 "HgN/A
6:50 PM61 °FPassing clouds.7 mph55%30.15 "HgN/A
6:20 PM63 °FPassing clouds.8 mph52%30.15 "HgN/A
5:50 PM61 °FSunny.9 mph55%30.15 "Hg10 mi
5:20 PM64 °FPassing clouds.5 mph49%30.15 "HgN/A
4:50 PM61 °FPartly sunny.8 mph55%30.15 "HgN/A
4:20 PM63 °FPartly sunny.6 mph52%30.15 "HgN/A
3:50 PM61 °FPassing clouds.5 mph59%30.15 "HgN/A
3:20 PM61 °FPartly sunny.6 mph52%30.15 "HgN/A
2:50 PM59 °FMore clouds than sun.6 mph63%30.18 "HgN/A
2:20 PM61 °FMore clouds than sun.7 mph59%30.18 "HgN/A
1:50 PM61 °FPartly sunny.2 mph55%30.18 "HgN/A
1:20 PM59 °FScattered clouds.3 mph63%30.18 "HgN/A
12:50 PM57 °FBroken clouds.5 mph67%30.18 "HgN/A
12:20 PM59 °FPassing clouds.5 mph68%30.15 "HgN/A
11:50 AM57 °FPassing clouds.6 mph72%30.15 "HgN/A
11:20 AM55 °FScattered clouds.3 mph77%30.18 "HgN/A
10:50 AM55 °FPartly sunny.5 mph72%30.18 "HgN/A
10:20 AM55 °FPartly sunny.5 mph72%30.18 "HgN/A
9:50 AM54 °FPartly sunny.6 mph77%30.18 "HgN/A
9:20 AM54 °FPartly sunny.8 mph77%30.18 "HgN/A
8:50 AM54 °FPartly sunny.7 mph77%30.18 "HgN/A
8:20 AM54 °FPartly sunny.5 mph72%30.18 "HgN/A
7:50 AM54 °FPartly sunny.3 mph72%30.18 "HgN/A
7:20 AM54 °FBroken clouds.3 mph72%30.18 "HgN/A
6:50 AM52 °FSunny.2 mph77%30.18 "Hg10 mi
6:20 AM50 °FSunny.5 mph82%30.18 "Hg10 mi
5:50 AM50 °FOvercast.5 mph82%30.18 "HgN/A
5:20 AM48 °FPartly sunny.2 mph82%30.18 "HgN/A
4:50 AM48 °FPassing clouds.2 mph82%30.18 "HgN/A
4:20 AM48 °FCool.3 mph82%30.18 "HgN/A
Weather by CustomWeather, © 2016

See weather overviewHow to use our weather pages